N1XBM-13 Weather Reports


time (UTC)temp
C
wind
direction
speed
KPH
gust
KPH
rain 1hr
cm
rain 24hr
cm
rain mn
cm
humidity
%
barometer
mb
20260506071004 12 109 0.0 0.0 0.00 0.03 0.00 82 992.8
20260506062004 12 109 0.0 0.0 0.00 0.03 0.00 83 992.4
20260506061004 12 109 0.0 0.0 0.00 0.03 0.00 82 992.4
20260506051004 13 109 0.0 0.0 0.00 0.03 0.00 82 992.3
20260506044004 13 109 0.0 0.0 0.00 0.03 0.00 80 992.5
20260506043004 14 109 0.0 0.0 0.00 0.03 0.00 79 992.4
20260506042005 14 109 0.0 0.0 0.00 0.03 0.00 77 992.6
20260506041004 15 109 0.0 1.6 0.00 0.03 0.00 77 992.5
20260506040004 15 229 0.0 0.0 0.00 0.03 0.00 76 992.5
20260506035004 15 229 0.0 0.0 0.00 0.03 0.03 77 992.2
20260506034004 15 229 0.0 0.0 0.00 0.03 0.03 78 992.2
20260506033005 15 229 0.0 0.0 0.00 0.03 0.03 78 992.0
20260506032003 15 229 0.0 0.0 0.00 0.03 0.03 77 992.0
20260506030004 15 229 0.0 0.0 0.00 0.03 0.03 78 992.2
20260506025004 16 229 0.0 3.2 0.00 0.03 0.03 77 992.3
20260506024005 16 270 0.0 0.0 0.00 0.03 0.03 78 992.3
20260506023004 16 271 1.6 3.2 0.00 0.03 0.03 78 992.5
20260506022004 16 244 0.0 0.0 0.00 0.03 0.03 77 992.5
20260506021004 16 244 0.0 0.0 0.00 0.03 0.03 78 992.5
20260506020005 16 244 0.0 0.0 0.00 0.03 0.03 78 992.5
20260506015006 16 244 0.0 0.0 0.03 0.03 0.03 81 992.5
20260506014004 16 244 0.0 0.0 0.03 0.03 0.03 81 992.7
20260506013004 16 244 0.0 0.0 0.03 0.03 0.03 81 992.5
20260506012004 16 244 0.0 0.0 0.03 0.03 0.03 80 992.5
20260506011003 17 244 0.0 0.0 0.03 0.03 0.03 80 992.7
20260506010004 17 244 0.0 0.0 0.03 0.03 0.03 80 992.6
20260506005005 16 244 0.0 9.7 0.00 0.00 0.00 82 992.4
20260506004005 16 227 0.0 4.8 0.00 0.00 0.00 83 992.1
20260506003004 16 174 0.0 0.0 0.00 0.00 0.00 84 992.0
20260506002005 16 174 0.0 3.2 0.00 0.00 0.00 83 991.7
20260506001004 17 4 0.0 3.2 0.00 0.00 0.00 82 991.0
20260506000005 17 9 0.0 3.2 0.00 0.00 0.00 82 990.6
20260505235004 18 10 1.6 4.8 0.00 0.00 0.00 79 990.5
20260505234004 19 179 1.6 4.8 0.00 0.00 0.00 68 991.2
20260505233004 20 13 0.0 4.8 0.00 0.00 0.00 64 991.2
20260505232004 20 319 0.0 14.5 0.00 0.00 0.00 60 991.2
20260505230004 20 238 3.2 11.3 0.00 0.00 0.00 54 991.2
20260505225004 20 249 4.8 19.3 0.00 0.00 0.00 52 991.0
20260505224004 20 209 8.0 20.9 0.00 0.00 0.00 50 988.7
20260505223004 20 237 8.0 20.9 0.00 0.00 0.00 50 988.5
20260505222003 20 248 6.4 20.9 0.00 0.00 0.00 49 988.4
20260505221005 21 240 8.0 22.5 0.00 0.00 0.00 49 988.3
20260505215004 21 209 4.8 24.1 0.00 0.00 0.00 47 988.2
20260505213004 22 213 9.7 25.7 0.00 0.00 0.00 47 988.1
20260505212004 22 231 9.7 24.1 0.00 0.00 0.00 47 988.1
20260505211004 22 172 3.2 19.3 0.00 0.00 0.00 47 987.9
20260505210004 22 251 8.0 16.1 0.00 0.00 0.00 45 987.9
20260505205004 22 199 8.0 20.9 0.00 0.00 0.00 46 988.0
20260505204005 22 248 6.4 19.3 0.00 0.00 0.00 46 988.0
20260505203004 22 257 6.4 22.5 0.00 0.00 0.00 45 988.1
20260505202005 23 225 8.0 27.4 0.00 0.00 0.00 44 988.1
20260505200004 23 227 9.7 24.1 0.00 0.00 0.00 44 988.3
20260505195004 23 246 8.0 20.9 0.00 0.00 0.00 42 988.3
20260505194004 23 224 11.3 27.4 0.00 0.00 0.00 42 988.5
20260505193005 23 239 9.7 22.5 0.00 0.00 0.00 42 988.5
20260505192004 23 207 9.7 33.8 0.00 0.00 0.00 42 988.7
20260505190005 23 223 8.0 19.3 0.00 0.00 0.00 42 989.2
20260505185005 23 189 8.0 19.3 0.00 0.00 0.00 42 989.2
20260505184004 24 234 9.7 20.9 0.00 0.00 0.00 42 989.2
20260505182005 24 265 9.7 19.3 0.00 0.00 0.00 41 989.5
20260505181005 23 230 8.0 22.5 0.00 0.00 0.00 42 989.5
20260505180004 24 225 6.4 20.9 0.00 0.00 0.00 43 989.6
20260505175005 24 209 8.0 19.3 0.00 0.00 0.00 42 989.5
20260505174004 24 247 8.0 16.1 0.00 0.00 0.00 42 989.7
20260505172004 24 238 8.0 19.3 0.00 0.00 0.00 43 989.9
20260505171004 25 247 6.4 14.5 0.00 0.00 0.00 41 990.1
20260505165003 25 191 8.0 22.5 0.00 0.00 0.00 39 990.4
20260505163005 24 241 6.4 20.9 0.00 0.00 0.00 39 990.9
20260505161004 22 252 8.0 14.5 0.00 0.00 0.00 44 991.2
20260505153004 21 236 8.0 14.5 0.00 0.00 0.00 45 992.0
20260505152004 21 165 8.0 16.1 0.00 0.00 0.00 45 992.2
20260505151003 21 226 3.2 14.5 0.00 0.00 0.00 46 992.2
20260505125003 17 253 3.2 8.0 0.00 0.00 0.00 54 992.4
20260505123004 16 245 3.2 9.7 0.00 0.00 0.00 55 992.2
20260505121004 15 211 4.8 12.9 0.00 0.00 0.00 58 992.5
20260505120005 15 207 3.2 8.0 0.00 0.00 0.00 60 992.5
20260505115004 14 179 3.2 12.9 0.00 0.00 0.00 63 992.5
20260505114004 13 245 4.8 8.0 0.00 0.00 0.00 64 992.7
20260505112004 12 234 0.0 4.8 0.00 0.00 0.00 71 992.6
20260505111004 11 239 1.6 8.0 0.00 0.00 0.00 74 992.7
20260505101004 10 193 0.0 0.0 0.00 0.00 0.00 77 992.7
20260505100004 10 193 0.0 3.2 0.00 0.00 0.00 76 992.6
20260505095004 10 244 0.0 0.0 0.00 0.00 0.00 75 992.6
20260505094005 10 244 0.0 0.0 0.00 0.00 0.00 76 992.6
20260505092005 10 244 0.0 3.2 0.00 0.00 0.00 75 992.7
20260505091005 10 213 0.0 0.0 0.00 0.00 0.00 72 992.7
20260505090004 11 213 0.0 1.6 0.00 0.00 0.00 70 992.6
20260505085004 11 216 0.0 3.2 0.00 0.00 0.00 69 992.7
20260505084003 11 216 0.0 0.0 0.00 0.00 0.00 68 992.8
20260505083005 11 216 1.6 8.0 0.00 0.00 0.00 67 992.8
20260505082004 12 232 1.6 8.0 0.00 0.00 0.00 66 992.9
20260505081005 12 233 3.2 8.0 0.00 0.00 0.00 66 993.0
20260505080004 11 225 3.2 8.0 0.00 0.00 0.00 67 992.9
20260505075004 12 220 3.2 9.7 0.00 0.00 0.00 67 992.9
20260505074004 11 243 0.0 3.2 0.00 0.00 0.00 68 992.9
20260505073004 11 198 0.0 0.0 0.00 0.00 0.00 67 992.8
20260505072005 12 198 0.0 0.0 0.00 0.00 0.00 67 992.7